GW3646 Weather Reports


Display with metric or nautical units.
time (UTC)temp
F
wind
direction
speed
MPH
gust
MPH
rain 1hr
in
rain 24hr
in
rain mn
in
humidity
%
barometer
mb
20260904041521 83 277 1.0 5.0 0.00 0.00 0.00 65 1012.4
20260904041005 83 241 1.0 4.0 0.00 0.00 0.00 65 1012.4
20260904040510 83 252 0.0 3.0 0.00 0.00 0.00 65 1012.4
20260904040033 83 150 1.0 3.0 0.00 0.00 0.00 65 1012.4
20260904035512 83 251 0.0 3.0 0.00 0.00 0.00 65 1012.4
20260904035013 83 252 0.0 3.0 0.00 0.00 0.00 65 1012.4
20260904034529 84 203 0.0 3.0 0.00 0.00 0.00 64 1012.4
20260904034014 84 222 1.0 3.0 0.00 0.00 0.00 64 1012.4
20260904033515 84 319 1.0 4.0 0.00 0.00 0.00 64 1012.4
20260904033032 84 138 1.0 4.0 0.00 0.00 0.00 63 1012.4
20260904032516 84 219 0.0 4.0 0.00 0.00 0.00 63 1012.4
20260904032013 84 219 1.0 4.0 0.00 0.00 0.00 63 1012.4
20260904031534 85 223 1.0 4.0 0.00 0.00 0.00 63 1012.4
20260904031010 85 246 1.0 4.0 0.00 0.00 0.00 62 1012.4
20260904030506 85 116 1.0 4.0 0.00 0.00 0.00 62 1012.3
20260904030018 85 274 1.0 4.0 0.00 0.00 0.00 62 1012.3
20260904025507 85 277 0.0 4.0 0.00 0.00 0.00 62 1012.2
20260904025013 85 276 1.0 4.0 0.00 0.00 0.00 61 1012.2
20260904024523 86 184 0.0 6.0 0.00 0.00 0.00 61 1012.2
20260904024012 86 211 1.0 6.0 0.00 0.00 0.00 61 1012.2
20260904023516 86 243 1.0 4.0 0.00 0.00 0.00 60 1012.1
20260904023029 86 259 0.0 3.0 0.00 0.00 0.00 60 1012.1
20260904022514 86 284 0.0 6.0 0.00 0.00 0.00 59 1012.0
20260904022016 87 279 1.0 6.0 0.00 0.00 0.00 59 1011.9
20260904021536 87 278 1.0 4.0 0.00 0.00 0.00 59 1011.9
20260904021021 87 265 0.0 4.0 0.00 0.00 0.00 58 1011.9
20260904020519 87 188 1.0 5.0 0.00 0.00 0.00 57 1011.8
20260904020032 88 278 2.0 6.0 0.00 0.00 0.00 57 1011.7
20260904015507 88 285 1.0 7.0 0.00 0.00 0.00 56 1011.6
20260904015007 88 205 1.0 7.0 0.00 0.00 0.00 56 1011.5
20260904014522 88 238 2.0 6.0 0.00 0.00 0.00 55 1011.4
20260904014015 89 306 1.0 6.0 0.00 0.00 0.00 55 1011.2
20260904013510 89 143 2.0 6.0 0.00 0.00 0.00 54 1011.0
20260904013028 89 292 0.0 6.0 0.00 0.00 0.00 54 1011.0
20260904012512 89 223 2.0 6.0 0.00 0.00 0.00 54 1010.8
20260904012014 90 263 2.0 4.0 0.00 0.00 0.00 53 1010.7
20260904011535 90 263 2.0 7.0 0.00 0.00 0.00 52 1010.7
20260904011014 90 301 1.0 7.0 0.00 0.00 0.00 52 1010.6
20260904010516 90 272 1.0 6.0 0.00 0.00 0.00 51 1010.6
20260904010044 91 251 2.0 6.0 0.00 0.00 0.00 51 1010.6
20260904005515 91 281 1.0 4.0 0.00 0.00 0.00 50 1010.6
20260904005016 91 279 1.0 5.0 0.00 0.00 0.00 49 1010.6
20260904004536 91 281 0.0 7.0 0.00 0.00 0.00 49 1010.5
20260904004006 92 276 2.0 7.0 0.00 0.00 0.00 48 1010.4
20260904003512 92 135 1.0 7.0 0.00 0.00 0.00 48 1010.4
20260904003026 92 259 1.0 10.0 0.00 0.00 0.00 47 1010.3
20260904002510 93 254 3.0 10.0 0.00 0.00 0.00 47 1010.3
20260904002012 93 209 3.0 10.0 0.00 0.00 0.00 46 1010.2
20260904001529 93 185 2.0 6.0 0.00 0.00 0.00 46 1010.1
20260904001004 93 142 1.0 4.0 0.00 0.00 0.00 45 1010.2
20260904000504 94 259 1.0 7.0 0.00 0.00 0.00 45 1010.1
20260904000010 94 259 1.0 7.0 0.00 0.00 0.00 44 1010.1
20260903235503 94 289 2.0 8.0 0.00 0.00 0.00 44 1010.1
20260903235003 94 261 2.0 8.0 0.00 0.00 0.00 44 1010.0
20260903234512 95 256 2.0 7.0 0.00 0.00 0.00 43 1010.0
20260903234008 95 207 2.0 7.0 0.00 0.00 0.00 43 1010.0
20260903233509 95 271 2.0 7.0 0.00 0.00 0.00 42 1010.1
20260903233018 96 296 3.0 14.0 0.00 0.00 0.00 41 1010.1
20260903232508 96 182 3.0 14.0 0.00 0.00 0.00 41 1010.0
20260903232012 96 201 4.0 14.0 0.00 0.00 0.00 40 1009.9
20260903231524 97 259 1.0 10.0 0.00 0.00 0.00 41 1009.9
20260903231014 97 263 2.0 10.0 0.00 0.00 0.00 41 1009.9
20260903230503 97 263 1.0 8.0 0.00 0.00 0.00 41 1009.9
20260903230008 97 238 2.0 8.0 0.00 0.00 0.00 40 1009.9
20260903225503 98 234 2.0 11.0 0.00 0.00 0.00 39 1009.8
20260903225002 98 247 1.0 11.0 0.00 0.00 0.00 39 1009.9
20260903224511 98 280 2.0 9.0 0.00 0.00 0.00 38 1009.9
20260903224004 98 261 2.0 10.0 0.00 0.00 0.00 39 1009.9
20260903223507 98 284 2.0 10.0 0.00 0.00 0.00 38 1009.9
20260903223014 98 271 3.0 8.0 0.00 0.00 0.00 38 1009.9
20260903222509 98 146 3.0 10.0 0.00 0.00 0.00 38 1009.9
20260903222008 98 255 4.0 10.0 0.00 0.00 0.00 39 1009.9
20260903221523 98 253 3.0 8.0 0.00 0.00 0.00 38 1009.9
20260903221011 98 322 1.0 8.0 0.00 0.00 0.00 39 1010.0
20260903220514 99 273 3.0 8.0 0.00 0.00 0.00 38 1010.0
20260903220028 99 271 3.0 8.0 0.00 0.00 0.00 37 1010.1
20260903215516 99 263 2.0 8.0 0.00 0.00 0.00 37 1010.1
20260903215003 99 265 1.0 6.0 0.00 0.00 0.00 37 1010.2
20260903214511 99 262 2.0 7.0 0.00 0.00 0.00 37 1010.3
20260903214003 99 300 3.0 7.0 0.00 0.00 0.00 36 1010.4
20260903213504 99 209 2.0 7.0 0.00 0.00 0.00 37 1010.3
20260903213017 99 274 2.0 8.0 0.00 0.00 0.00 37 1010.3
20260903212504 99 333 1.0 8.0 0.00 0.00 0.00 38 1010.3
20260903212011 98 209 3.0 8.0 0.00 0.00 0.00 37 1010.3
20260903211516 99 196 3.0 14.0 0.00 0.00 0.00 37 1010.4
20260903211011 99 260 2.0 14.0 0.00 0.00 0.00 37 1010.4
20260903210502 99 259 2.0 10.0 0.00 0.00 0.00 38 1010.5
20260903210004 99 163 2.0 11.0 0.00 0.00 0.00 39 1010.5
20260903205506 98 333 3.0 11.0 0.00 0.00 0.00 39 1010.5
20260903205003 98 229 4.0 8.0 0.00 0.00 0.00 38 1010.6
20260903204506 98 303 2.0 8.0 0.00 0.00 0.00 39 1010.6
20260903204002 98 292 4.0 10.0 0.00 0.00 0.00 39 1010.8
20260903203504 98 332 2.0 10.0 0.00 0.00 0.00 40 1010.8
20260903203008 98 288 3.0 11.0 0.00 0.00 0.00 40 1010.9
20260903202506 98 275 4.0 11.0 0.00 0.00 0.00 40 1010.9
20260903202004 98 242 3.0 11.0 0.00 0.00 0.00 40 1010.9
20260903201512 98 283 3.0 11.0 0.00 0.00 0.00 39 1010.9
20260903201008 98 299 3.0 11.0 0.00 0.00 0.00 41 1010.9
20260903200507 98 256 2.0 9.0 0.00 0.00 0.00 41 1011.1
20260903200021 98 217 3.0 9.0 0.00 0.00 0.00 42 1011.0
20260903195510 98 259 2.0 9.0 0.00 0.00 0.00 41 1011.0
20260903195004 97 198 3.0 10.0 0.00 0.00 0.00 42 1011.1
20260903194504 97 283 4.0 10.0 0.00 0.00 0.00 43 1011.3
20260903194002 97 309 3.0 12.0 0.00 0.00 0.00 44 1011.3
20260903193504 97 253 4.0 12.0 0.00 0.00 0.00 42 1011.4
20260903193006 97 194 3.0 10.0 0.00 0.00 0.00 43 1011.5
20260903192503 96 163 2.0 10.0 0.00 0.00 0.00 44 1011.6
20260903192004 96 297 3.0 10.0 0.00 0.00 0.00 44 1011.7
20260903191510 96 271 2.0 10.0 0.00 0.00 0.00 44 1011.8
20260903191004 96 204 3.0 8.0 0.00 0.00 0.00 46 1011.8
20260903190509 96 258 2.0 11.0 0.00 0.00 0.00 45 1011.9
20260903190017 95 311 2.0 11.0 0.00 0.00 0.00 47 1011.9
20260903185509 95 150 3.0 9.0 0.00 0.00 0.00 47 1011.9
20260903185010 95 254 4.0 9.0 0.00 0.00 0.00 47 1012.1
20260903184523 94 248 3.0 11.0 0.00 0.00 0.00 46 1012.1
20260903184013 94 241 3.0 11.0 0.00 0.00 0.00 47 1012.2
20260903183512 94 292 4.0 10.0 0.00 0.00 0.00 47 1012.2
20260903183005 94 284 3.0 10.0 0.00 0.00 0.00 48 1012.4
20260903182503 94 51 2.0 10.0 0.00 0.00 0.00 48 1012.4
20260903182004 94 259 3.0 10.0 0.00 0.00 0.00 50 1012.5
20260903181508 93 159 3.0 10.0 0.00 0.00 0.00 51 1012.7
20260903181004 93 308 3.0 8.0 0.00 0.00 0.00 49 1012.7
20260903180505 94 273 3.0 8.0 0.00 0.00 0.00 49 1012.8
20260903180015 93 17 2.0 9.0 0.00 0.00 0.00 50 1012.9
20260903175508 93 229 4.0 9.0 0.00 0.00 0.00 50 1013.1
20260903175008 93 230 3.0 10.0 0.00 0.00 0.00 50 1013.0
20260903174523 92 289 2.0 11.0 0.00 0.00 0.00 51 1013.1
20260903174007 92 251 3.0 11.0 0.00 0.00 0.00 51 1013.1
20260903173510 92 223 5.0 11.0 0.00 0.00 0.00 50 1013.2
20260903173025 92 155 4.0 9.0 0.00 0.00 0.00 51 1013.2
20260903172512 92 209 3.0 12.0 0.00 0.00 0.00 50 1013.3
20260903172013 92 294 2.0 12.0 0.00 0.00 0.00 52 1013.3
20260903171506 91 250 2.0 9.0 0.00 0.00 0.00 53 1013.3
20260903171006 91 292 1.0 9.0 0.00 0.00 0.00 55 1013.5
20260903170504 90 290 3.0 11.0 0.00 0.00 0.00 54 1013.5
20260903170010 90 263 2.0 11.0 0.00 0.00 0.00 53 1013.5
20260903165505 90 248 4.0 11.0 0.00 0.00 0.00 53 1013.6
20260903165003 89 327 2.0 12.0 0.00 0.00 0.00 58 1013.6
20260903164516 89 240 2.0 12.0 0.00 0.00 0.00 56 1013.6
20260903164008 89 249 3.0 11.0 0.00 0.00 0.00 55 1013.6
20260903163509 89 281 2.0 8.0 0.00 0.00 0.00 57 1013.7
20260903163023 88 279 3.0 10.0 0.00 0.00 0.00 57 1013.7
20260903162510 88 182 2.0 10.0 0.00 0.00 0.00 58 1013.8
20260903162011 88 267 3.0 12.0 0.00 0.00 0.00 60 1013.8
20260903161533 87 279 2.0 12.0 0.00 0.00 0.00 59 1013.8
20260903161014 87 198 3.0 8.0 0.00 0.00 0.00 59 1013.8
20260903160516 87 257 4.0 9.0 0.00 0.00 0.00 61 1013.9
20260903160020 87 252 2.0 9.0 0.00 0.00 0.00 62 1013.9
20260903155502 86 272 2.0 11.0 0.00 0.00 0.00 62 1013.9
20260903155005 86 283 3.0 11.0 0.00 0.00 0.00 62 1014.0
20260903154516 86 277 2.0 10.0 0.00 0.00 0.00 62 1013.9
20260903154008 86 297 4.0 10.0 0.00 0.00 0.00 63 1014.1
20260903153507 86 282 3.0 9.0 0.00 0.00 0.00 62 1014.1
20260903153021 85 270 2.0 9.0 0.00 0.00 0.00 64 1014.0
20260903152510 85 281 2.0 11.0 0.00 0.00 0.00 65 1014.1
20260903152010 84 111 2.0 11.0 0.00 0.00 0.00 66 1014.0
20260903151528 84 270 3.0 10.0 0.00 0.00 0.00 67 1013.9
20260903151010 84 263 2.0 9.0 0.00 0.00 0.00 67 1013.9
20260903150513 84 269 3.0 9.0 0.00 0.00 0.00 67 1013.8
20260903150033 83 249 2.0 8.0 0.00 0.00 0.00 68 1013.8
20260903145517 83 244 3.0 8.0 0.00 0.00 0.00 67 1013.9
20260903145014 83 279 2.0 8.0 0.00 0.00 0.00 68 1013.9
20260903144511 82 263 3.0 12.0 0.00 0.00 0.00 68 1014.1
20260903144004 82 279 2.0 12.0 0.00 0.00 0.00 69 1014.0
20260903143506 82 170 2.0 12.0 0.00 0.00 0.00 71 1013.9
20260903143021 81 238 3.0 12.0 0.00 0.00 0.00 71 1014.0
20260903142506 81 277 1.0 7.0 0.00 0.00 0.00 71 1014.0
20260903142008 81 277 3.0 7.0 0.00 0.00 0.00 71 1014.1
20260903141519 80 242 2.0 11.0 0.00 0.00 0.00 72 1014.1
20260903141011 80 226 2.0 11.0 0.00 0.00 0.00 72 1014.1
20260903140511 80 261 2.0 7.0 0.00 0.00 0.00 73 1014.1
20260903140029 79 264 2.0 7.0 0.00 0.00 0.00 73 1014.3
20260903135512 79 284 2.0 7.0 0.00 0.00 0.00 74 1014.3
20260903135017 78 219 2.0 8.0 0.00 0.00 0.00 75 1014.3
20260903134528 78 237 3.0 8.0 0.00 0.00 0.00 75 1014.3
20260903134015 78 273 1.0 9.0 0.00 0.00 0.00 75 1014.2
20260903133519 78 136 0.0 9.0 0.00 0.00 0.00 75 1014.3
20260903133012 77 246 2.0 7.0 0.00 0.00 0.00 76 1014.3
20260903132504 77 227 2.0 7.0 0.00 0.00 0.00 75 1014.2
20260903132008 77 200 2.0 7.0 0.00 0.00 0.00 76 1014.2
20260903131518 77 228 2.0 7.0 0.00 0.00 0.00 77 1014.2
20260903131007 76 279 1.0 7.0 0.00 0.00 0.00 77 1014.2
20260903130512 76 257 0.0 6.0 0.00 0.00 0.00 78 1014.2
20260903130027 76 234 1.0 6.0 0.00 0.00 0.00 78 1014.2
20260903125513 75 301 0.0 3.0 0.00 0.00 0.00 78 1014.1
20260903125012 75 157 0.0 3.0 0.00 0.00 0.00 78 1014.1
20260903124528 75 259 0.0 3.0 0.00 0.00 0.00 78 1014.1
20260903124014 75 204 0.0 4.0 0.00 0.00 0.00 78 1014.1
20260903123517 75 217 0.0 4.0 0.00 0.00 0.00 78 1014.0
20260903123032 75 275 1.0 4.0 0.00 0.00 0.00 78 1013.9
20260903122518 75 285 0.0 2.0 0.00 0.00 0.00 78 1013.8
20260903122018 75 279 0.0 1.0 0.00 0.00 0.00 77 1013.7
20260903121516 75 226 0.0 2.0 0.00 0.00 0.00 78 1013.7
20260903121002 75 209 0.0 2.0 0.00 0.00 0.00 77 1013.6
20260903120503 75 250 0.0 2.0 0.00 0.00 0.00 78 1013.7
20260903120004 75 153 0.0 4.0 0.00 0.00 0.00 78 1013.7
20260903115506 74 247 0.0 4.0 0.00 0.00 0.00 77 1013.6
20260903115002 74 213 0.0 1.0 0.00 0.00 0.00 77 1013.5
20260903114504 75 213 0.0 1.0 0.00 0.00 0.00 77 1013.5
20260903114002 75 191 0.0 0.0 0.00 0.00 0.00 77 1013.4
20260903113502 75 191 0.0 0.0 0.00 0.00 0.00 77 1013.4
20260903113006 75 191 0.0 0.0 0.00 0.00 0.00 76 1013.4
20260903112502 75 191 0.0 1.0 0.00 0.00 0.00 76 1013.4
20260903112002 75 191 0.0 1.0 0.00 0.00 0.00 76 1013.4
20260903111504 75 191 0.0 1.0 0.00 0.00 0.00 76 1013.5
20260903111003 75 191 0.0 1.0 0.00 0.00 0.00 76 1013.5
20260903110506 75 191 0.0 1.0 0.00 0.00 0.00 76 1013.5
20260903110004 75 148 0.0 0.0 0.00 0.00 0.00 75 1013.5
20260903105504 75 148 0.0 0.0 0.00 0.00 0.00 75 1013.4
20260903105002 75 148 0.0 0.0 0.00 0.00 0.00 75 1013.5
20260903104504 75 148 0.0 0.0 0.00 0.00 0.00 75 1013.5
20260903104002 75 148 0.0 0.0 0.00 0.00 0.00 75 1013.4
20260903103502 75 148 0.0 0.0 0.00 0.00 0.00 75 1013.4
20260903103004 76 148 0.0 0.0 0.00 0.00 0.00 75 1013.4
20260903102502 76 148 0.0 0.0 0.00 0.00 0.00 75 1013.4
20260903102002 76 148 0.0 0.0 0.00 0.00 0.00 74 1013.4
20260903101503 76 148 0.0 0.0 0.00 0.00 0.00 74 1013.5
20260903101003 76 148 0.0 0.0 0.00 0.00 0.00 73 1013.5
20260903100503 76 148 0.0 0.0 0.00 0.00 0.00 72 1013.5
20260903100005 77 148 0.0 0.0 0.00 0.00 0.00 72 1013.4
20260903095505 77 148 0.0 0.0 0.00 0.00 0.00 72 1013.5
20260903095002 77 148 0.0 0.0 0.00 0.00 0.00 71 1013.4
20260903094505 77 148 0.0 0.0 0.00 0.00 0.00 71 1013.4
20260903094004 77 148 0.0 0.0 0.00 0.00 0.00 71 1013.4
20260903093504 78 148 0.0 0.0 0.00 0.00 0.00 70 1013.4
20260903093003 78 143 0.0 0.0 0.00 0.00 0.00 70 1013.4
20260903092504 78 140 0.0 0.0 0.00 0.00 0.00 69 1013.4
20260903092004 78 292 0.0 0.0 0.00 0.00 0.00 68 1013.4
20260903091506 79 292 0.0 0.0 0.00 0.00 0.00 68 1013.4
20260903091002 79 292 0.0 0.0 0.00 0.00 0.00 68 1013.4
20260903090503 79 161 0.0 2.0 0.00 0.00 0.00 68 1013.3
20260903090014 79 186 0.0 3.0 0.00 0.00 0.00 67 1013.3
20260903085503 80 196 0.0 3.0 0.00 0.00 0.00 66 1013.2
20260903085003 80 274 0.0 3.0 0.00 0.00 0.00 65 1013.2
20260903084504 80 184 0.0 5.0 0.00 0.00 0.00 65 1013.2
20260903084005 80 249 0.0 6.0 0.00 0.00 0.00 65 1013.2
20260903083503 80 221 1.0 6.0 0.00 0.00 0.00 64 1013.1
20260903083006 80 275 0.0 2.0 0.00 0.00 0.00 64 1013.1
20260903082503 80 299 0.0 3.0 0.00 0.00 0.00 64 1013.2
20260903082004 80 178 1.0 4.0 0.00 0.00 0.00 63 1013.1
20260903081506 80 141 1.0 4.0 0.00 0.00 0.00 63 1013.1
20260903081005 80 283 0.0 4.0 0.00 0.00 0.00 63 1013.1
20260903080503 80 211 0.0 4.0 0.00 0.00 0.00 63 1013.1
20260903080006 80 270 0.0 5.0 0.00 0.00 0.00 63 1013.0
20260903075503 80 232 1.0 5.0 0.00 0.00 0.00 63 1013.0
20260903075003 80 103 0.0 4.0 0.00 0.00 0.00 63 1013.1
20260903074508 79 261 0.0 2.0 0.00 0.00 0.00 63 1013.1
20260903074005 79 237 0.0 7.0 0.00 0.00 0.00 63 1013.1
20260903073504 79 265 1.0 7.0 0.00 0.00 0.00 63 1013.1
20260903073015 79 278 0.0 3.0 0.00 0.00 0.00 63 1013.1
20260903072504 79 327 0.0 3.0 0.00 0.00 0.00 63 1013.1
20260903072003 79 175 0.0 0.0 0.00 0.00 0.00 63 1012.9
20260903071516 80 146 0.0 3.0 0.00 0.00 0.00 63 1012.9
20260903071003 80 176 0.0 3.0 0.00 0.00 0.00 62 1012.9
20260903070503 80 176 0.0 3.0 0.00 0.00 0.00 62 1012.9
20260903070007 80 261 0.0 2.0 0.00 0.00 0.00 62 1012.9
20260903065504 80 261 0.0 2.0 0.00 0.00 0.00 62 1012.9
20260903065004 80 261 0.0 2.0 0.00 0.00 0.00 61 1013.0
20260903064509 80 261 0.0 2.0 0.00 0.00 0.00 61 1013.0
20260903064003 80 249 0.0 2.0 0.00 0.00 0.00 61 1012.9
20260903063504 80 249 0.0 2.0 0.00 0.00 0.00 61 1012.9
20260903063011 80 323 0.0 3.0 0.00 0.00 0.00 61 1012.8
20260903062504 80 287 0.0 3.0 0.00 0.00 0.00 60 1012.7
20260903062004 80 287 0.0 5.0 0.00 0.00 0.00 61 1012.7
20260903061509 80 304 0.0 5.0 0.00 0.00 0.00 60 1012.7
20260903061004 81 252 0.0 1.0 0.00 0.00 0.00 60 1012.7
20260903060503 81 216 0.0 0.0 0.00 0.00 0.00 60 1012.7
20260903060012 81 216 0.0 1.0 0.00 0.00 0.00 59 1012.8
20260903055504 81 216 0.0 2.0 0.00 0.00 0.00 59 1012.9
20260903055006 82 216 0.0 2.0 0.00 0.00 0.00 58 1012.8
20260903054508 82 249 0.0 2.0 0.00 0.00 0.00 58 1012.9
20260903054003 82 249 0.0 2.0 0.00 0.00 0.00 57 1012.9
20260903053504 82 275 0.0 2.0 0.00 0.00 0.00 57 1012.9
20260903053012 82 151 0.0 2.0 0.00 0.00 0.00 57 1012.8
20260903052507 82 296 0.0 2.0 0.00 0.00 0.00 57 1012.7
20260903052007 83 165 0.0 3.0 0.00 0.00 0.00 57 1012.7
20260903051510 83 281 0.0 3.0 0.00 0.00 0.00 56 1012.7
20260903051004 83 262 0.0 1.0 0.00 0.00 0.00 56 1012.7
20260903050505 83 233 0.0 1.0 0.00 0.00 0.00 55 1012.7
20260903050024 83 223 0.0 3.0 0.00 0.00 0.00 55 1012.8
20260903045504 84 223 0.0 4.0 0.00 0.00 0.00 55 1012.8
20260903045005 84 282 0.0 4.0 0.00 0.00 0.00 54 1012.8
20260903044511 84 272 0.0 3.0 0.00 0.00 0.00 54 1012.8
20260903044006 84 265 1.0 4.0 0.00 0.00 0.00 54 1012.7
20260903043506 84 276 0.0 4.0 0.00 0.00 0.00 54 1012.7
20260903043014 84 267 0.0 2.0 0.00 0.00 0.00 53 1012.7
20260903042503 85 248 0.0 5.0 0.00 0.00 0.00 53 1012.8
20260903042006 85 248 0.0 5.0 0.00 0.00 0.00 53 1012.8